Time,TemperatureF,DewpointF,PressureIn,WindDirection,WindDirectionDegrees,WindSpeedMPH,WindSpeedGustMPH,Humidity,HourlyPrecipIn,Conditions,Clouds,dailyrainin,SoftwareType,DateUTC
2013-03-25 00:03:00,48.9,39.2,30.06,ESE,120,2.0,3.0,69,0.00,,,0.00,Wunderground v.1.15,2013-03-24 10:03:00,
2013-03-25 00:13:00,48.5,39.2,30.06,ESE,115,0.0,1.0,70,0.00,,,0.00,Wunderground v.1.15,2013-03-24 10:13:00,
2013-03-25 00:18:00,48.5,39.2,30.06,ESE,105,0.0,0.0,70,0.00,,,0.00,Wunderground v.1.15,2013-03-24 10:18:00,
2013-03-25 00:28:00,48.4,39.4,30.06,East,91,0.0,0.0,71,0.00,,,0.00,Wunderground v.1.15,2013-03-24 10:28:00,
2013-03-25 00:38:00,47.7,39.5,30.05,ESE,115,0.0,0.0,73,0.00,,,0.00,Wunderground v.1.15,2013-03-24 10:38:00,
2013-03-25 00:48:00,47.5,40.0,30.05,East,82,0.0,1.0,75,0.00,,,0.00,Wunderground v.1.15,2013-03-24 10:48:00,
2013-03-25 00:53:00,47.4,39.9,30.05,East,82,0.0,1.0,75,0.00,,,0.00,Wunderground v.1.15,2013-03-24 10:53:00,
2013-03-25 01:03:00,47.4,40.2,30.05,East,89,1.0,1.0,76,0.00,,,0.00,Wunderground v.1.15,2013-03-24 11:03:00,
2013-03-25 01:13:00,47.3,40.1,30.05,East,89,0.0,1.0,76,0.00,,,0.00,Wunderground v.1.15,2013-03-24 11:13:00,
2013-03-25 01:23:00,47.1,39.9,30.05,East,84,1.0,2.0,76,0.00,,,0.00,Wunderground v.1.15,2013-03-24 11:23:00,
2013-03-25 01:28:00,46.8,40.0,30.05,ENE,78,0.0,0.0,77,0.00,,,0.00,Wunderground v.1.15,2013-03-24 11:28:00,
2013-03-25 01:38:00,46.5,40.0,30.05,ENE,78,1.0,1.0,78,0.00,,,0.00,Wunderground v.1.15,2013-03-24 11:38:00,
2013-03-25 01:48:00,46.4,39.6,30.06,ENE,78,0.0,0.0,77,0.00,,,0.00,Wunderground v.1.15,2013-03-24 11:48:00,
2013-03-25 01:53:00,46.5,39.7,30.05,East,84,0.0,0.0,77,0.00,,,0.00,Wunderground v.1.15,2013-03-24 11:53:00,
2013-03-25 02:03:00,46.5,39.3,30.05,East,86,1.0,1.0,76,0.00,,,0.00,Wunderground v.1.15,2013-03-24 12:03:00,
2013-03-25 02:13:00,46.2,38.7,30.05,East,81,0.0,0.0,75,0.00,,,0.00,Wunderground v.1.15,2013-03-24 12:13:00,
2013-03-25 02:18:00,46.3,39.1,30.05,ENE,75,0.0,0.0,76,0.00,,,0.00,Wunderground v.1.15,2013-03-24 12:18:00,
2013-03-25 02:23:00,46.1,38.6,30.05,ENE,75,0.0,0.0,75,0.00,,,0.00,Wunderground v.1.15,2013-03-24 12:23:00,
2013-03-25 02:28:00,46.0,38.5,30.05,ENE,77,0.0,0.0,75,0.00,,,0.00,Wunderground v.1.15,2013-03-24 12:28:00,
2013-03-25 02:33:00,46.0,38.5,30.05,ENE,76,0.0,0.0,75,0.00,,,0.00,Wunderground v.1.15,2013-03-24 12:33:00,
2013-03-25 02:43:00,45.6,38.5,30.05,ENE,77,0.0,0.0,76,0.00,,,0.00,Wunderground v.1.15,2013-03-24 12:43:00,
2013-03-25 02:48:00,45.8,38.3,30.05,ENE,77,0.0,1.0,75,0.00,,,0.00,Wunderground v.1.15,2013-03-24 12:48:00,
2013-03-25 02:58:00,45.8,38.3,30.05,East,83,0.0,0.0,75,0.00,,,0.00,Wunderground v.1.15,2013-03-24 12:58:00,
2013-03-25 03:03:00,45.7,38.2,30.05,East,84,0.0,0.0,75,0.00,,,0.00,Wunderground v.1.15,2013-03-24 13:03:00,
2013-03-25 03:13:00,45.3,38.2,30.05,NNE,20,0.0,0.0,76,0.00,,,0.00,Wunderground v.1.15,2013-03-24 13:13:00,
2013-03-25 03:18:00,45.1,38.0,30.06,NNE,20,0.0,0.0,76,0.00,,,0.00,Wunderground v.1.15,2013-03-24 13:18:00,
2013-03-25 03:23:00,45.0,37.9,30.06,NNE,19,0.0,0.0,76,0.00,,,0.00,Wunderground v.1.15,2013-03-24 13:23:00,
2013-03-25 03:33:00,45.0,37.9,30.07,NNE,19,0.0,0.0,76,0.00,,,0.00,Wunderground v.1.15,2013-03-24 13:33:00,
2013-03-25 03:38:00,45.1,38.0,30.06,NNE,20,0.0,0.0,76,0.00,,,0.00,Wunderground v.1.15,2013-03-24 13:38:00,
2013-03-25 03:48:00,45.7,37.9,30.06,East,79,1.0,1.0,74,0.00,,,0.00,Wunderground v.1.15,2013-03-24 13:48:00,
2013-03-25 03:53:00,45.7,37.5,30.06,East,82,0.0,1.0,73,0.00,,,0.00,Wunderground v.1.15,2013-03-24 13:53:00,
2013-03-25 04:03:00,45.6,37.1,30.06,ENE,70,0.0,0.0,72,0.00,,,0.00,Wunderground v.1.15,2013-03-24 14:03:00,
2013-03-25 04:13:00,45.4,36.9,30.07,ENE,64,0.0,0.0,72,0.00,,,0.00,Wunderground v.1.15,2013-03-24 14:13:00,
2013-03-25 04:18:00,45.2,36.7,30.07,ENE,63,0.0,0.0,72,0.00,,,0.00,Wunderground v.1.15,2013-03-24 14:18:00,
2013-03-25 04:23:00,45.6,37.1,30.07,ENE,64,0.0,0.0,72,0.00,,,0.00,Wunderground v.1.15,2013-03-24 14:23:00,
2013-03-25 04:33:00,47.0,37.4,30.07,ENE,64,0.0,0.0,69,0.00,,,0.00,Wunderground v.1.15,2013-03-24 14:33:00,
2013-03-25 04:43:00,47.5,37.5,30.08,NW,318,0.0,0.0,68,0.00,,,0.00,Wunderground v.1.15,2013-03-24 14:43:00,
2013-03-25 04:53:00,46.9,37.6,30.08,NW,312,0.0,2.0,70,0.00,,,0.00,Wunderground v.1.15,2013-03-24 14:53:00,
2013-03-25 04:58:00,46.7,37.4,30.08,NNW,343,1.0,2.0,70,0.00,,,0.00,Wunderground v.1.15,2013-03-24 14:58:00,
2013-03-25 05:04:00,46.5,37.6,30.08,NNW,334,2.0,2.0,71,0.00,,,0.00,Wunderground v.1.15,2013-03-24 15:04:00,
2013-03-25 05:13:00,47.5,38.6,30.08,NNW,345,0.0,1.0,71,0.00,,,0.00,Wunderground v.1.15,2013-03-24 15:13:00,
2013-03-25 05:23:00,48.0,37.9,30.08,NW,319,0.0,0.0,68,0.00,,,0.00,Wunderground v.1.15,2013-03-24 15:23:00,
2013-03-25 05:33:00,48.6,38.5,30.08,NW,309,0.0,0.0,68,0.00,,,0.00,Wunderground v.1.15,2013-03-24 15:33:00,
2013-03-25 05:43:00,49.3,38.0,30.08,NW,309,0.0,1.0,65,0.00,,,0.00,Wunderground v.1.15,2013-03-24 15:43:00,
2013-03-25 05:48:00,50.3,39.0,30.08,NNE,25,0.0,0.0,65,0.00,,,0.00,Wunderground v.1.15,2013-03-24 15:48:00,
2013-03-25 05:58:00,50.9,38.7,30.08,WNW,298,0.0,0.0,63,0.00,,,0.00,Wunderground v.1.15,2013-03-24 15:58:00,
2013-03-25 06:03:00,51.0,39.2,30.08,NNW,339,0.0,0.0,64,0.00,,,0.00,Wunderground v.1.15,2013-03-24 16:03:00,
2013-03-25 06:13:00,52.2,39.6,30.08,NE,36,0.0,0.0,62,0.00,,,0.00,Wunderground v.1.15,2013-03-24 16:13:00,
2013-03-25 06:18:00,52.7,39.2,30.08,NW,316,0.0,0.0,60,0.00,,,0.00,Wunderground v.1.15,2013-03-24 16:18:00,
2013-03-25 06:28:00,53.0,39.5,30.08,NNW,330,0.0,0.0,60,0.00,,,0.00,Wunderground v.1.15,2013-03-24 16:28:00,
2013-03-25 06:38:00,54.7,39.8,30.08,WSW,246,0.0,0.0,57,0.00,,,0.00,Wunderground v.1.15,2013-03-24 16:38:00,
2013-03-25 06:48:00,55.0,39.6,30.08,NNE,18,0.0,0.0,56,0.00,,,0.00,Wunderground v.1.15,2013-03-24 16:48:00,
2013-03-25 06:53:00,55.8,39.9,30.09,NW,311,0.0,0.0,55,0.00,,,0.00,Wunderground v.1.15,2013-03-24 16:53:00,
2013-03-25 07:03:00,56.5,39.6,30.09,West,270,0.0,0.0,53,0.00,,,0.00,Wunderground v.1.15,2013-03-24 17:03:00,
2013-03-25 07:13:00,57.1,40.1,30.08,WSW,238,0.0,1.0,53,0.00,,,0.00,Wunderground v.1.15,2013-03-24 17:13:00,
2013-03-25 07:23:00,58.2,39.6,30.08,NW,326,0.0,2.0,50,0.00,,,0.00,Wunderground v.1.15,2013-03-24 17:23:00,
2013-03-25 07:33:00,58.5,39.4,30.08,WSW,240,1.0,3.0,49,0.00,,,0.00,Wunderground v.1.15,2013-03-24 17:33:00,
2013-03-25 07:38:00,58.6,39.5,30.08,WNW,300,2.0,3.0,49,0.00,,,0.00,Wunderground v.1.15,2013-03-24 17:38:00,
2013-03-25 07:48:00,58.8,39.1,30.08,WNW,283,2.0,2.0,48,0.00,,,0.00,Wunderground v.1.15,2013-03-24 17:48:00,
2013-03-25 07:53:00,59.0,40.4,30.08,West,278,2.0,2.0,50,0.00,,,0.00,Wunderground v.1.15,2013-03-24 17:53:00,
2013-03-25 08:03:00,59.5,39.8,30.08,West,270,2.0,2.0,48,0.00,,,0.00,Wunderground v.1.15,2013-03-24 18:03:00,
2013-03-25 08:13:00,60.0,40.8,30.08,WSW,250,2.0,5.0,49,0.00,,,0.00,Wunderground v.1.15,2013-03-24 18:13:00,
2013-03-25 08:18:00,60.7,40.3,30.08,NW,308,2.0,3.0,47,0.00,,,0.00,Wunderground v.1.15,2013-03-24 18:18:00,
2013-03-25 08:23:00,60.6,40.2,30.08,NW,313,2.0,3.0,47,0.00,,,0.00,Wunderground v.1.15,2013-03-24 18:23:00,
2013-03-25 08:28:00,61.1,40.7,30.08,NW,311,2.0,3.0,47,0.00,,,0.00,Wunderground v.1.15,2013-03-24 18:28:00,
2013-03-25 08:38:00,61.7,40.1,30.07,NW,323,2.0,3.0,45,0.00,,,0.00,Wunderground v.1.15,2013-03-24 18:38:00,
2013-03-25 08:48:00,62.6,40.9,30.07,NE,34,1.0,3.0,45,0.00,,,0.00,Wunderground v.1.15,2013-03-24 18:48:00,
2013-03-25 08:53:00,63.1,40.8,30.07,WSW,242,1.0,3.0,44,0.00,,,0.00,Wunderground v.1.15,2013-03-24 18:53:00,
2013-03-25 09:03:00,64.0,41.6,30.07,NNW,347,1.0,1.0,44,0.00,,,0.00,Wunderground v.1.15,2013-03-24 19:03:00,
2013-03-25 09:13:00,65.5,41.2,30.06,SW,222,1.0,1.0,41,0.00,,,0.00,Wunderground v.1.15,2013-03-24 19:13:00,
2013-03-25 09:18:00,65.2,40.3,30.06,North,1,1.0,2.0,40,0.00,,,0.00,Wunderground v.1.15,2013-03-24 19:18:00,
2013-03-25 09:23:00,64.9,40.0,30.06,NNE,19,2.0,2.0,40,0.00,,,0.00,Wunderground v.1.15,2013-03-24 19:23:00,
2013-03-25 09:33:00,65.6,40.6,30.06,West,269,0.0,2.0,40,0.00,,,0.00,Wunderground v.1.15,2013-03-24 19:33:00,
2013-03-25 09:38:00,65.5,40.5,30.06,North,1,1.0,1.0,40,0.00,,,0.00,Wunderground v.1.15,2013-03-24 19:38:00,
2013-03-25 09:48:00,66.1,41.1,30.05,WSW,243,2.0,4.0,40,0.00,,,0.00,Wunderground v.1.15,2013-03-24 19:48:00,
2013-03-25 09:53:00,66.2,41.2,30.05,SE,145,2.0,4.0,40,0.00,,,0.00,Wunderground v.1.15,2013-03-24 19:53:00,
2013-03-25 10:03:00,66.7,39.6,30.05,SSE,165,2.0,3.0,37,0.00,,,0.00,Wunderground v.1.15,2013-03-24 20:03:00,
2013-03-25 10:13:00,67.2,40.7,30.05,NW,305,3.0,3.0,38,0.00,,,0.00,Wunderground v.1.15,2013-03-24 20:13:00,
2013-03-25 10:18:00,67.4,40.9,30.05,WSW,245,2.0,4.0,38,0.00,,,0.00,Wunderground v.1.15,2013-03-24 20:18:00,
2013-03-25 10:28:00,68.0,40.0,30.04,WNW,290,2.0,2.0,36,0.00,,,0.00,Wunderground v.1.15,2013-03-24 20:28:00,
2013-03-25 10:33:00,67.9,40.7,30.04,WNW,302,2.0,2.0,37,0.00,,,0.00,Wunderground v.1.15,2013-03-24 20:33:00,
2013-03-25 10:43:00,68.3,41.0,30.04,West,260,3.0,5.0,37,0.00,,,0.00,Wunderground v.1.15,2013-03-24 20:43:00,
2013-03-25 10:53:00,68.5,40.5,30.03,WNW,294,3.0,4.0,36,0.00,,,0.00,Wunderground v.1.15,2013-03-24 20:53:00,
2013-03-25 11:03:00,69.3,38.2,30.03,WNW,291,2.0,3.0,32,0.00,,,0.00,Wunderground v.1.15,2013-03-24 21:03:00,
2013-03-25 11:13:00,68.5,37.5,30.03,WNW,302,4.0,6.0,32,0.00,,,0.00,Wunderground v.1.15,2013-03-24 21:13:00,
2013-03-25 11:18:00,69.0,37.1,30.02,West,279,4.0,4.0,31,0.00,,,0.00,Wunderground v.1.15,2013-03-24 21:18:00,
2013-03-25 11:23:00,69.1,40.3,30.02,NW,316,2.0,4.0,35,0.00,,,0.00,Wunderground v.1.15,2013-03-24 21:23:00,
2013-03-25 11:33:00,68.9,37.8,30.01,NNE,18,3.0,6.0,32,0.00,,,0.00,Wunderground v.1.15,2013-03-24 21:33:00,
2013-03-25 11:38:00,69.3,35.7,30.01,NW,319,3.0,3.0,29,0.00,,,0.00,Wunderground v.1.15,2013-03-24 21:38:00,
2013-03-25 11:48:00,70.2,37.3,30.00,WSW,250,2.0,2.0,30,0.00,,,0.00,Wunderground v.1.15,2013-03-24 21:48:00,
2013-03-25 11:58:00,70.0,36.3,30.00,NW,321,2.0,2.0,29,0.00,,,0.00,Wunderground v.1.15,2013-03-24 21:58:00,
2013-03-25 12:04:00,70.7,35.1,30.00,WSW,238,1.0,2.0,27,0.00,,,0.00,Wunderground v.1.15,2013-03-24 22:04:00,
2013-03-25 12:13:00,71.1,37.2,29.99,NW,325,2.0,2.0,29,0.00,,,0.00,Wunderground v.1.15,2013-03-24 22:13:00,
2013-03-25 12:18:00,71.4,38.3,29.99,South,173,1.0,1.0,30,0.00,,,0.00,Wunderground v.1.15,2013-03-24 22:18:00,
2013-03-25 12:28:00,72.7,39.5,29.98,SSE,153,0.0,0.0,30,0.00,,,0.00,Wunderground v.1.15,2013-03-24 22:28:00,
2013-03-25 12:38:00,72.4,38.3,29.98,SW,233,2.0,3.0,29,0.00,,,0.00,Wunderground v.1.15,2013-03-24 22:38:00,
2013-03-25 12:48:00,72.9,37.9,29.98,WSW,239,2.0,2.0,28,0.00,,,0.00,Wunderground v.1.15,2013-03-24 22:48:00,
2013-03-25 12:53:00,72.9,38.8,29.98,WNW,287,2.0,3.0,29,0.00,,,0.00,Wunderground v.1.15,2013-03-24 22:53:00,
2013-03-25 13:03:00,72.6,39.4,29.97,NW,321,2.0,5.0,30,0.00,,,0.00,Wunderground v.1.15,2013-03-24 23:03:00,
2013-03-25 13:13:00,72.9,38.8,29.97,WNW,301,3.0,5.0,29,0.00,,,0.00,Wunderground v.1.15,2013-03-24 23:13:00,
2013-03-25 13:18:00,72.9,38.8,29.97,WNW,292,4.0,4.0,29,0.00,,,0.00,Wunderground v.1.15,2013-03-24 23:18:00,
2013-03-25 13:23:00,72.4,39.2,29.97,WNW,292,3.0,4.0,30,0.00,,,0.00,Wunderground v.1.15,2013-03-24 23:23:00,
2013-03-25 13:33:00,72.7,39.5,29.97,NNE,22,3.0,3.0,30,0.00,,,0.00,Wunderground v.1.15,2013-03-24 23:33:00,
2013-03-25 13:38:00,72.7,38.6,29.96,WNW,301,3.0,3.0,29,0.00,,,0.00,Wunderground v.1.15,2013-03-24 23:38:00,
2013-03-25 13:43:00,72.5,38.4,29.96,WSW,256,3.0,3.0,29,0.00,,,0.00,Wunderground v.1.15,2013-03-24 23:43:00,
2013-03-25 13:48:00,72.3,40.0,29.96,NW,321,3.0,4.0,31,0.00,,,0.00,Wunderground v.1.15,2013-03-24 23:48:00,
2013-03-25 13:58:00,72.9,40.5,29.95,SE,124,2.0,2.0,31,0.00,,,0.00,Wunderground v.1.15,2013-03-24 23:58:00,
2013-03-25 14:03:00,73.3,40.8,29.95,North,359,1.0,2.0,31,0.00,,,0.00,Wunderground v.1.15,2013-03-25 00:03:00,
2013-03-25 14:13:00,72.9,41.3,29.95,West,274,2.0,2.0,32,0.00,,,0.00,Wunderground v.1.15,2013-03-25 00:13:00,
2013-03-25 14:18:00,73.0,41.4,29.95,NNE,20,1.0,3.0,32,0.00,,,0.00,Wunderground v.1.15,2013-03-25 00:18:00,
2013-03-25 14:23:00,73.5,41.0,29.94,West,262,1.0,3.0,31,0.00,,,0.00,Wunderground v.1.15,2013-03-25 00:23:00,
2013-03-25 14:33:00,73.3,41.6,29.94,NW,324,3.0,6.0,32,0.00,,,0.00,Wunderground v.1.15,2013-03-25 00:33:00,
2013-03-25 14:43:00,73.3,41.6,29.94,NW,312,2.0,4.0,32,0.00,,,0.00,Wunderground v.1.15,2013-03-25 00:43:00,
2013-03-25 14:48:00,73.0,41.4,29.94,NW,319,2.0,2.0,32,0.00,,,0.00,Wunderground v.1.15,2013-03-25 00:48:00,
2013-03-25 14:58:00,72.8,41.2,29.94,West,277,1.0,2.0,32,0.00,,,0.00,Wunderground v.1.15,2013-03-25 00:58:00,
2013-03-25 15:03:00,72.3,40.8,29.94,NW,306,2.0,3.0,32,0.00,,,0.00,Wunderground v.1.15,2013-03-25 01:03:00,
2013-03-25 15:13:00,71.8,40.3,29.94,WNW,283,2.0,4.0,32,0.00,,,0.00,Wunderground v.1.15,2013-03-25 01:13:00,
2013-03-25 15:23:00,71.5,38.4,29.94,NW,317,2.0,3.0,30,0.00,,,0.00,Wunderground v.1.15,2013-03-25 01:23:00,
2013-03-25 15:33:00,70.9,38.7,29.94,North,355,2.0,2.0,31,0.00,,,0.00,Wunderground v.1.15,2013-03-25 01:33:00,
2013-03-25 15:38:00,70.8,38.7,29.93,NNW,342,1.0,1.0,31,0.00,,,0.00,Wunderground v.1.15,2013-03-25 01:38:00,
2013-03-25 15:48:00,70.5,38.4,29.94,North,354,1.0,1.0,31,0.00,,,0.00,Wunderground v.1.15,2013-03-25 01:48:00,
2013-03-25 15:53:00,70.3,39.0,29.94,North,6,1.0,1.0,32,0.00,,,0.00,Wunderground v.1.15,2013-03-25 01:53:00,
2013-03-25 16:03:00,70.0,38.8,29.93,North,357,1.0,1.0,32,0.00,,,0.00,Wunderground v.1.15,2013-03-25 02:03:00,
2013-03-25 16:13:00,69.6,40.0,29.94,NNW,345,0.0,1.0,34,0.00,,,0.00,Wunderground v.1.15,2013-03-25 02:13:00,
2013-03-25 16:18:00,69.4,39.0,29.94,North,8,0.0,0.0,33,0.00,,,0.00,Wunderground v.1.15,2013-03-25 02:18:00,
2013-03-25 16:23:00,69.2,39.6,29.93,North,8,0.0,0.0,34,0.00,,,0.00,Wunderground v.1.15,2013-03-25 02:23:00,
2013-03-25 16:33:00,68.5,39.8,29.93,North,8,0.0,0.0,35,0.00,,,0.00,Wunderground v.1.15,2013-03-25 02:33:00,
2013-03-25 16:43:00,67.9,39.2,29.94,North,8,0.0,0.0,35,0.00,,,0.00,Wunderground v.1.15,2013-03-25 02:43:00,
2013-03-25 16:53:00,67.3,40.1,29.93,North,8,0.0,0.0,37,0.00,,,0.00,Wunderground v.1.15,2013-03-25 02:53:00,
2013-03-25 16:58:00,66.9,39.1,29.94,North,8,0.0,0.0,36,0.00,,,0.00,Wunderground v.1.15,2013-03-25 02:58:00,
2013-03-25 17:03:00,66.5,39.4,29.94,North,8,0.0,0.0,37,0.00,,,0.00,Wunderground v.1.15,2013-03-25 03:03:00,
2013-03-25 17:13:00,65.4,39.1,29.94,North,8,0.0,0.0,38,0.00,,,0.00,Wunderground v.1.15,2013-03-25 03:13:00,
2013-03-25 17:18:00,65.2,38.9,29.94,North,8,0.0,0.0,38,0.00,,,0.00,Wunderground v.1.15,2013-03-25 03:18:00,
2013-03-25 17:23:00,64.9,40.0,29.94,SSW,208,1.0,1.0,40,0.00,,,0.00,Wunderground v.1.15,2013-03-25 03:23:00,
2013-03-25 17:38:00,65.3,39.7,29.94,SSW,203,0.0,0.0,39,0.00,,,0.00,Wunderground v.1.15,2013-03-25 03:38:00,
2013-03-25 17:48:00,65.0,40.1,29.94,ESE,112,0.0,0.0,40,0.00,,,0.00,Wunderground v.1.15,2013-03-25 03:48:00,
2013-03-25 17:58:00,64.1,40.5,29.94,ESE,111,0.0,0.0,42,0.00,,,0.00,Wunderground v.1.15,2013-03-25 03:58:00,
2013-03-25 18:03:00,63.6,40.1,29.94,ESE,111,0.0,1.0,42,0.00,,,0.00,Wunderground v.1.15,2013-03-25 04:03:00,
2013-03-25 18:08:00,63.8,40.3,29.95,ESE,113,0.0,0.0,42,0.00,,,0.00,Wunderground v.1.15,2013-03-25 04:08:00,
2013-03-25 18:18:00,63.3,40.4,29.95,ESE,113,0.0,0.0,43,0.00,,,0.00,Wunderground v.1.15,2013-03-25 04:18:00,
2013-03-25 18:28:00,62.6,40.4,29.95,ESE,113,0.0,0.0,44,0.00,,,0.00,Wunderground v.1.15,2013-03-25 04:28:00,
2013-03-25 18:33:00,62.0,40.4,29.95,ESE,113,0.0,0.0,45,0.00,,,0.00,Wunderground v.1.15,2013-03-25 04:33:00,
2013-03-25 18:43:00,62.8,41.7,29.95,ESE,113,0.0,0.0,46,0.00,,,0.00,Wunderground v.1.15,2013-03-25 04:43:00,
2013-03-25 18:53:00,61.9,41.4,29.95,ESE,105,0.0,0.0,47,0.00,,,0.00,Wunderground v.1.15,2013-03-25 04:53:00,
2013-03-25 19:03:00,61.3,42.0,29.95,ESE,104,0.0,1.0,49,0.00,,,0.00,Wunderground v.1.15,2013-03-25 05:03:00,
2013-03-25 19:13:00,60.9,41.6,29.95,ESE,105,0.0,0.0,49,0.00,,,0.00,Wunderground v.1.15,2013-03-25 05:13:00,
2013-03-25 19:18:00,60.8,42.0,29.95,ESE,105,0.0,0.0,50,0.00,,,0.00,Wunderground v.1.15,2013-03-25 05:18:00,
2013-03-25 19:28:00,60.5,42.3,29.95,ESE,113,0.0,0.0,51,0.00,,,0.00,Wunderground v.1.15,2013-03-25 05:28:00,
2013-03-25 19:33:00,60.2,42.5,29.95,ESE,113,0.0,0.0,52,0.00,,,0.00,Wunderground v.1.15,2013-03-25 05:33:00,
2013-03-25 19:38:00,60.1,42.4,29.95,ESE,115,0.0,1.0,52,0.00,,,0.00,Wunderground v.1.15,2013-03-25 05:38:00,
2013-03-25 19:48:00,60.2,43.0,29.95,SE,131,1.0,2.0,53,0.00,,,0.00,Wunderground v.1.15,2013-03-25 05:48:00,
2013-03-25 19:58:00,59.9,42.7,29.96,East,99,1.0,1.0,53,0.00,,,0.00,Wunderground v.1.15,2013-03-25 05:58:00,
2013-03-25 20:03:00,59.8,42.6,29.96,ESE,113,1.0,1.0,53,0.00,,,0.00,Wunderground v.1.15,2013-03-25 06:03:00,
2013-03-25 20:13:00,59.5,42.8,29.96,ESE,104,1.0,1.0,54,0.00,,,0.00,Wunderground v.1.15,2013-03-25 06:13:00,
2013-03-25 20:23:00,59.0,43.3,29.96,ESE,109,1.0,2.0,56,0.00,,,0.00,Wunderground v.1.15,2013-03-25 06:23:00,
2013-03-25 20:28:00,58.7,43.0,29.96,ESE,106,1.0,1.0,56,0.00,,,0.00,Wunderground v.1.15,2013-03-25 06:28:00,
2013-03-25 20:38:00,58.1,43.4,29.96,ESE,113,1.0,1.0,58,0.00,,,0.00,Wunderground v.1.15,2013-03-25 06:38:00,
2013-03-25 20:48:00,57.8,43.1,29.96,East,99,1.0,1.0,58,0.00,,,0.00,Wunderground v.1.15,2013-03-25 06:48:00,
2013-03-25 20:58:00,57.4,43.6,29.95,ESE,116,2.0,2.0,60,0.00,,,0.00,Wunderground v.1.15,2013-03-25 06:58:00,
2013-03-25 21:03:00,57.2,43.9,29.96,ESE,108,2.0,3.0,61,0.00,,,0.00,Wunderground v.1.15,2013-03-25 07:03:00,
2013-03-25 21:13:00,56.9,44.0,29.96,East,91,2.0,2.0,62,0.00,,,0.00,Wunderground v.1.15,2013-03-25 07:13:00,
2013-03-25 21:23:00,56.4,44.4,29.96,ESE,115,1.0,1.0,64,0.00,,,0.00,Wunderground v.1.15,2013-03-25 07:23:00,
2013-03-25 21:28:00,56.2,44.2,29.96,ESE,110,1.0,2.0,64,0.00,,,0.00,Wunderground v.1.15,2013-03-25 07:28:00,
2013-03-25 21:33:00,56.1,44.5,29.96,ESE,108,1.0,2.0,65,0.00,,,0.00,Wunderground v.1.15,2013-03-25 07:33:00,
2013-03-25 21:43:00,55.8,44.6,29.96,ESE,112,2.0,2.0,66,0.00,,,0.00,Wunderground v.1.15,2013-03-25 07:43:00,
2013-03-25 21:53:00,55.4,45.0,29.96,ESE,117,1.0,3.0,68,0.00,,,0.00,Wunderground v.1.15,2013-03-25 07:53:00,
2013-03-25 22:03:00,55.0,45.0,29.96,East,101,1.0,2.0,69,0.00,,,0.00,Wunderground v.1.15,2013-03-25 08:03:00,
2013-03-25 22:13:00,54.9,45.3,29.96,East,100,1.0,3.0,70,0.00,,,0.00,Wunderground v.1.15,2013-03-25 08:13:00,
2013-03-25 22:18:00,54.9,45.3,29.96,ESE,117,1.0,2.0,70,0.00,,,0.00,Wunderground v.1.15,2013-03-25 08:18:00,
2013-03-25 22:28:00,54.6,45.4,29.96,ESE,102,1.0,1.0,71,0.00,,,0.00,Wunderground v.1.15,2013-03-25 08:28:00,
2013-03-25 22:33:00,54.5,45.3,29.96,ESE,105,1.0,1.0,71,0.00,,,0.00,Wunderground v.1.15,2013-03-25 08:33:00,
2013-03-25 22:38:00,54.4,45.2,29.96,ESE,103,1.0,1.0,71,0.00,,,0.00,Wunderground v.1.15,2013-03-25 08:38:00,
2013-03-25 22:48:00,54.3,45.1,29.96,East,98,2.0,2.0,71,0.00,,,0.00,Wunderground v.1.15,2013-03-25 08:48:00,
2013-03-25 22:58:00,54.2,45.0,29.96,East,93,2.0,3.0,71,0.00,,,0.00,Wunderground v.1.15,2013-03-25 08:58:00,
2013-03-25 23:03:00,53.9,44.7,29.96,East,95,2.0,3.0,71,0.00,,,0.00,Wunderground v.1.15,2013-03-25 09:03:00,
2013-03-25 23:13:00,53.8,44.6,29.96,ESE,105,1.0,1.0,71,0.00,,,0.00,Wunderground v.1.15,2013-03-25 09:13:00,
2013-03-25 23:23:00,53.5,44.7,29.96,ESE,110,1.0,1.0,72,0.00,,,0.00,Wunderground v.1.15,2013-03-25 09:23:00,
2013-03-25 23:33:00,53.2,44.4,29.96,East,85,1.0,2.0,72,0.00,,,0.00,Wunderground v.1.15,2013-03-25 09:33:00,
2013-03-25 23:43:00,52.9,44.5,29.95,East,98,2.0,3.0,73,0.00,,,0.00,Wunderground v.1.15,2013-03-25 09:43:00,
2013-03-25 23:53:00,52.6,44.2,29.96,SE,124,1.0,2.0,73,0.00,,,0.00,Wunderground v.1.15,2013-03-25 09:53:00,
2013-03-25 23:58:00,52.4,44.4,29.96,East,91,1.0,2.0,74,0.00,,,0.00,Wunderground v.1.15,2013-03-25 09:58:00,